Hourly Weather Koziniec

Today, 27 October, Tuesday

Time Temperature Precipitation Wind Pressure Humidity
00:00 +10°C° 0 mm 1 mps 726 mmHg 88%
01:00 +10°C° 0 mm 1 mps 727 mmHg 88%
02:00 +10°C° 0 mm 1 mps 727 mmHg 89%
03:00 +10°C° 0 mm 1 mps 727 mmHg 89%
04:00 +10°C° 0 mm 1 mps 727 mmHg 89%
05:00 +10°C° 0 mm 1 mps 728 mmHg 89%
06:00 +10°C° 0 mm 1 mps 728 mmHg 89%
07:00 +9°C° 0 mm 0 mps 728 mmHg 88%
08:00 +10°C° 0.2 mm 1 mps 729 mmHg 88%
09:00 +10°C° 0.2 mm 1 mps 729 mmHg 89%
10:00 +10°C° 0.2 mm 1 mps 729 mmHg 89%
11:00 +10°C° 0.1 mm 1 mps 729 mmHg 87%
12:00 +10°C° 0.1 mm 1 mps 729 mmHg 86%
13:00 +10°C° 0.1 mm 1 mps 730 mmHg 84%
14:00 +10°C° 0 mm 1 mps 730 mmHg 84%
15:00 +10°C° 0 mm 1 mps 730 mmHg 85%
16:00 +9°C° 0 mm 2 mps 730 mmHg 85%
17:00 +9°C° 0 mm 2 mps 730 mmHg 85%
18:00 +8°C° 0 mm 2 mps 731 mmHg 85%
19:00 +8°C° 0 mm 2 mps 731 mmHg 85%
20:00 +8°C° 0 mm 2 mps 731 mmHg 86%
21:00 +7°C° 0 mm 2 mps 731 mmHg 87%
22:00 +7°C° 0 mm 2 mps 732 mmHg 87%
23:00 +7°C° 0 mm 2 mps 732 mmHg 88%

Tomorrow, 28 October, Wednesday

Time Temperature Precipitation Wind Pressure Humidity
00:00 +6°C° 0 mm 2 mps 732 mmHg 88%
01:00 +6°C° 0 mm 2 mps 732 mmHg 89%
02:00 +6°C° 0 mm 2 mps 732 mmHg 89%
03:00 +6°C° 0 mm 2 mps 732 mmHg 88%
04:00 +5°C° 0 mm 2 mps 731 mmHg 88%
05:00 +5°C° 0 mm 2 mps 732 mmHg 87%
06:00 +5°C° 0 mm 2 mps 732 mmHg 86%
07:00 +5°C° 0 mm 2 mps 732 mmHg 85%
08:00 +7°C° 0 mm 3 mps 732 mmHg 76%
09:00 +8°C° 0 mm 4 mps 732 mmHg 67%
10:00 +11°C° 0 mm 4 mps 733 mmHg 58%
11:00 +10°C° 0 mm 5 mps 733 mmHg 58%
12:00 +12°C° 0 mm 5 mps 733 mmHg 57%
13:00 +12°C° 0 mm 5 mps 733 mmHg 57%
14:00 +10°C° 0 mm 5 mps 733 mmHg 61%
15:00 +11°C° 0 mm 4 mps 733 mmHg 66%
16:00 +10°C° 0 mm 4 mps 733 mmHg 70%
17:00 +10°C° 0 mm 4 mps 733 mmHg 73%
18:00 +8°C° 0 mm 4 mps 733 mmHg 75%
19:00 +8°C° 0 mm 4 mps 733 mmHg 78%
20:00 +7°C° 0 mm 4 mps 734 mmHg 80%
21:00 +7°C° 0 mm 4 mps 734 mmHg 83%
22:00 +8°C° 0 mm 3 mps 734 mmHg 85%
23:00 +8°C° 0 mm 3 mps 734 mmHg 86%

Day after tomorrow, 29 October, Thursday

Time Temperature Precipitation Wind Pressure Humidity
00:00 +8°C° 0 mm 3 mps 734 mmHg 87%
01:00 +8°C° 0 mm 3 mps 734 mmHg 87%
02:00 +8°C° 0 mm 3 mps 734 mmHg 87%
03:00 +8°C° 0 mm 3 mps 733 mmHg 86%
04:00 +8°C° 0 mm 3 mps 733 mmHg 85%
05:00 +7°C° 0 mm 4 mps 733 mmHg 84%
06:00 +7°C° 0 mm 4 mps 733 mmHg 84%
07:00 +7°C° 0 mm 4 mps 733 mmHg 83%
08:00 +8°C° 0 mm 5 mps 733 mmHg 82%
09:00 +9°C° 0 mm 5 mps 733 mmHg 80%
10:00 +9°C° 0 mm 5 mps 733 mmHg 79%
11:00 +9°C° 0.2 mm 6 mps 733 mmHg 80%
12:00 +9°C° 0.2 mm 6 mps 733 mmHg 80%
13:00 +9°C° 0.2 mm 6 mps 733 mmHg 81%
14:00 +9°C° 0.1 mm 5 mps 733 mmHg 80%
15:00 +8°C° 0.1 mm 4 mps 733 mmHg 80%
16:00 +8°C° 0.1 mm 4 mps 734 mmHg 79%
17:00 +8°C° 0.1 mm 3 mps 734 mmHg 81%
18:00 +8°C° 0.1 mm 3 mps 735 mmHg 83%
19:00 +7°C° 0.1 mm 3 mps 735 mmHg 85%
20:00 +5°C° 0 mm 3 mps 736 mmHg 86%
21:00 +5°C° 0 mm 3 mps 736 mmHg 87%
22:00 +4°C° 0 mm 3 mps 736 mmHg 88%
23:00 +4°C° 0 mm 3 mps 737 mmHg 88%

30 October, Friday

Time Temperature Precipitation Wind Pressure Humidity
00:00 +4°C° 0 mm 3 mps 737 mmHg 89%
01:00 +3°C° 0 mm 3 mps 737 mmHg 89%
02:00 +3°C° 0 mm 3 mps 738 mmHg 90%
03:00 +3°C° 0 mm 3 mps 738 mmHg 90%
04:00 +3°C° 0 mm 2 mps 738 mmHg 91%
05:00 +3°C° 0 mm 2 mps 738 mmHg 91%
06:00 +3°C° 0 mm 2 mps 738 mmHg 91%
07:00 +3°C° 0 mm 2 mps 738 mmHg 91%
08:00 +4°C° 0 mm 3 mps 738 mmHg 86%
09:00 +5°C° 0 mm 3 mps 738 mmHg 82%
10:00 +7°C° 0 mm 3 mps 738 mmHg 77%
11:00 +7°C° 0.4 mm 3 mps 738 mmHg 81%
12:00 +7°C° 0.4 mm 3 mps 737 mmHg 84%
13:00 +7°C° 0.4 mm 3 mps 737 mmHg 88%
14:00 +7°C° 0.8 mm 2 mps 737 mmHg 90%
15:00 +7°C° 0.8 mm 2 mps 736 mmHg 92%
16:00 +7°C° 0.8 mm 2 mps 736 mmHg 94%
17:00 +7°C° 0.6 mm 2 mps 736 mmHg 94%
18:00 +8°C° 0.6 mm 2 mps 736 mmHg 95%
19:00 +8°C° 0.6 mm 2 mps 736 mmHg 95%
20:00 +8°C° 0.8 mm 2 mps 736 mmHg 96%
21:00 +8°C° 0.8 mm 2 mps 737 mmHg 96%
22:00 +8°C° 0.8 mm 2 mps 737 mmHg 96%
23:00 +9°C° 0.7 mm 2 mps 737 mmHg 97%

31 October, Saturday

Time Temperature Precipitation Wind Pressure Humidity
00:00 +9°C° 0.7 mm 2 mps 737 mmHg 97%
01:00 +9°C° 0.7 mm 2 mps 737 mmHg 97%
02:00 +9°C° 0.5 mm 2 mps 738 mmHg 97%
03:00 +10°C° 0.5 mm 1 mps 738 mmHg 97%
04:00 +10°C° 0.5 mm 1 mps 738 mmHg 97%
05:00 +10°C° 0.4 mm 1 mps 738 mmHg 97%
06:00 +10°C° 0.4 mm 1 mps 738 mmHg 98%
07:00 +9°C° 0.4 mm 0 mps 738 mmHg 98%
08:00 +9°C° 0.3 mm 0 mps 739 mmHg 97%
09:00 +9°C° 0.3 mm 0 mps 739 mmHg 97%
10:00 +9°C° 0.3 mm 0 mps 739 mmHg 96%
11:00 +9°C° 0.2 mm 0 mps 739 mmHg 96%
12:00 +10°C° 0.2 mm 0 mps 739 mmHg 96%
13:00 +10°C° 0.2 mm 0 mps 739 mmHg 96%
14:00 +11°C° 0.1 mm 1 mps 739 mmHg 96%
15:00 +11°C° 0.1 mm 1 mps 739 mmHg 95%
16:00 +11°C° 0.1 mm 1 mps 739 mmHg 95%
17:00 +10°C° 0.1 mm 1 mps 739 mmHg 94%
18:00 +10°C° 0.1 mm 1 mps 739 mmHg 94%
19:00 +9°C° 0.1 mm 2 mps 739 mmHg 93%
20:00 +9°C° 0 mm 2 mps 739 mmHg 91%
21:00 +9°C° 0 mm 2 mps 739 mmHg 90%
22:00 +8°C° 0 mm 2 mps 739 mmHg 88%
23:00 +8°C° 0 mm 2 mps 739 mmHg 89%

1 November, Sunday

Time Temperature Precipitation Wind Pressure Humidity
00:00 +7°C° 0 mm 2 mps 739 mmHg 90%
01:00 +7°C° 0 mm 2 mps 739 mmHg 91%
02:00 +7°C° 0 mm 2 mps 739 mmHg 90%
03:00 +7°C° 0 mm 2 mps 739 mmHg 89%
04:00 +6°C° 0 mm 2 mps 739 mmHg 88%
05:00 +6°C° 0 mm 2 mps 739 mmHg 88%
06:00 +6°C° 0 mm 2 mps 739 mmHg 87%
07:00 +6°C° 0 mm 2 mps 739 mmHg 87%
08:00 +8°C° 0 mm 3 mps 739 mmHg 84%
09:00 +9°C° 0 mm 3 mps 739 mmHg 80%
10:00 +11°C° 0 mm 3 mps 739 mmHg 77%
11:00 +11°C° 0 mm 3 mps 738 mmHg 76%
12:00 +12°C° 0 mm 3 mps 738 mmHg 75%
13:00 +13°C° 0 mm 3 mps 738 mmHg 74%
14:00 +12°C° 0 mm 3 mps 738 mmHg 77%
15:00 +12°C° 0 mm 2 mps 738 mmHg 81%
16:00 +10°C° 0 mm 2 mps 737 mmHg 85%
17:00 +10°C° 0 mm 2 mps 737 mmHg 87%
18:00 +9°C° 0 mm 2 mps 738 mmHg 89%
19:00 +8°C° 0 mm 2 mps 738 mmHg 91%
20:00 +9°C° 0 mm 1 mps 738 mmHg 91%
21:00 +9°C° 0 mm 1 mps 738 mmHg 91%
22:00 +9°C° 0 mm 1 mps 738 mmHg 92%
23:00 +9°C° 0 mm 1 mps 737 mmHg 92%
Show more